Showing default

TIME FLIES, 64564

Orbit data source: Space-Track

TIME FLIES, 64564 is a payload satellite owned by TrustPoint (US) in SSO that was launched on Mon, 23 Jun 2025 UTC via an FALCON 9 launch vehicle from the Air Force Western Test Range (AFWTR). Payload-class satellites include a variety of spacecraft equipped with specific instruments for various scientific and technological missions. These include communications satellites like Starlink; space stations such as the ISS; scientific satellites like the Hubble; Earth observation satellites from companies like Planet Labs, Umbra, and HawkEye 360; GPS; miniature CubeSats for education and research; and military/defense satellites.

Loading next visibility...
Identifier
64564, 2025-135AN
Orbit
SSO
Country
Flag of USUS
Related business
Manufacturer
TrustPoint
Mission
Operational Commercial Navigation
Bus & Motor
CUBESAT 3U?, Unknown motor
Mass
4 kg wet, 4 kg dry
Launch date (UTC)
2025-06-23 (11 months ago)
Launch vehicle
FALCON 9
Launch site
Air Force Western Test Range (AFWTR)
Object type
Payload
Rocket body
Debris
Shape & HBR
Box, 0.1 m
Radar Cross Section
0.035 m², Medium (>0.1 m² and < 1m²)

Expand to show TLE details & history
Last TLE update: 7 hours ago

TLE from 7 hours ago
0 TIME FLIES
1 64564U 25135AN  26132.10924977  .00002342  00000-0  22114-3 0  9998
2 64564  97.7660 246.9203 0002762  61.9347 298.2152 14.94702580 48512
Epoch: 2026-05-12T02:37Z
TLE epoch observation values (Epoch: 2026-05-12T02:37:19.180Z)
Latitude
-0.00004°
Longitude
-22.29796°
Altitude
585.433 km
Speed
7.568 km/s
True Right ascension
16h 27m 40s
True Declination
0° 00' 00"
Sunlit
Object was in full shadow at epoch
Visualization orbit readout
Latitude
Unknown
Longitude
Unknown
Altitude
Unknown
Speed
Unknown
Apparent Right ascension
Unknown
Apparent Declination
Unknown
Sunlit
N/A
Visualization observer readout
Local Sidereal Time
18:22:48
Azimuth
Unknown
Elevation
Unknown
Doppler factor
Unknown
Orbital elements
Apogee altitude
582.233 km
Perigee altitude
578.389 km
Semi-major axis
6,958.448 km
Eccentricity
0.00028
Inclination
97.766°
RAAN
246.9203°
Arg. of periapsis
61.9347°
True anomaly
298.18731°
Mean anomaly
298.2152°
Eccentric anomaly
298.20125°
Mean motion
3.73916 °/min
Orbital period
96.28 mins
BSTAR
0.00022114
Loading maneuver chart data...
Computing Atmospheric mass density...
Loading historical data...
Loading historical data...
Loading historical data...
Loading historical data...
Loading historical data...
Loading historical data...
Loading historical data...

Documentation

Showing up to 5 results
|